1317081634569,4.28127
1317081694569,4.27687
1317081754569,4.28406
1317081814569,4.29210
1317081874569,4.25797
1317081934569,4.27509
1317081994569,4.28651
1317082054569,4.28540
1317082114569,4.31026
1317082174569,4.29316
1317082234569,4.26880
1317082294569,4.25078
1317082354569,4.26954
1317082414569,4.30216
1317082474569,4.28482
1317082534569,4.28072
1317082594569,4.27867
1317082654569,4.28859
1317082714569,4.29700
1317082774569,4.39779
1317082834569,4.27512
1317082894569,4.23190
1317082954569,4.29790
1317083014569,4.29656
1317083074569,4.30192
1317083134569,4.29034
1317083194569,4.27929
1317083254569,4.27593
1317083314569,4.27373
1317083374569,4.28708
1317083434569,4.25902
1317083494569,4.28219
1317083554569,4.28427
1317083614569,4.25831
1317083674569,4.23910
1317083734569,4.28887
1317083794569,4.29243
1317083854569,4.26250
1317083914569,4.29803
1317083974569,4.24120
1317084034569,4.23256
1317084094569,4.29078
1317084154569,4.27975
1317084214569,4.27566
1317084274569,4.28429
1317084334569,4.28760
1317084394569,4.26967
1317084454569,4.28354
1317084514569,4.29435
1317084574569,4.25399
1317084634569,4.26465
1317084694569,4.25063
1317084754569,4.28639
1317084814569,4.30267
1317084874569,4.29647
1317084934569,4.27747
1317084994569,4.28768
1317085054569,4.28768
1317085114569,4.26078
1317085174569,4.28296
1317085234579,4.27069
1317085294579,4.30481
1317085354579,4.27040
1317085414579,4.26895
1317085474579,4.27072
1317085534579,4.26685
1317085594579,4.29082
1317085654579,4.27085
1317085714579,4.27888
1317085774579,4.28519
1317085834579,4.25899
1317085894579,4.26258
1317085954579,4.27028
1317086014579,4.26956
1317086074579,4.27451
1317086134579,4.27842
1317086194579,4.26996
1317086254579,4.23649
1317086314579,4.27685
1317086374579,4.26481
1317086434579,4.29543
1317086494579,4.32141
1317086554579,4.35712
1317086614579,4.28397
1317086674579,4.28945
1317086734579,4.28871
1317086794579,4.26173
1317086854579,4.27165
1317086914579,4.27868
1317086974579,4.26713
1317087034579,4.28692
1317087094579,4.25898
1317087154579,4.26582
1317087214579,4.29236
1317087274579,4.27780
1317087334579,4.27904
1317087394579,4.26755
1317087454579,4.25986
1317087514579,4.28419
1317087574579,4.28976
1317087634579,4.25349
1317087694579,4.29323
1317087754579,4.30451
1317087814579,4.29045
1317087874579,4.24050
1317087934579,4.27187
1317087994579,4.26827
1317088054579,4.26720
1317088114579,4.26122
1317088174579,4.22937
1317088234579,4.28344
1317088294579,4.26137
1317088354579,4.28752
1317088414579,4.30548
1317088474579,4.31421
1317088534579,4.30395
1317088594579,4.32250
1317088654579,4.29057
1317088714579,4.33180
1317088774579,4.30317
1317088834590,4.28432
1317088894590,4.29057
1317088954590,4.32865
1317089014590,4.31660
1317089074590,4.30385
1317089134590,4.28811
1317089194590,4.29733
1317089254590,4.31198
1317089314590,4.27919
1317089374590,4.26562
1317089434590,4.27460
1317089494590,4.27717
1317089554590,4.30498
1317089614590,4.25965
1317089674590,4.26077
1317089734590,4.28183
1317089794590,4.25859
1317089854590,4.23810
1317089914590,4.27314
1317089974590,4.29356
1317090034590,4.27357
1317090094590,4.28187
1317090154590,4.29090
1317090214590,4.23608
1317090274590,4.25099
1317090334590,4.28690
1317090394590,4.26355
1317090454590,4.23387
1317090514590,4.25808
1317090574590,4.23010
1317090634590,4.20937
1317090694590,4.23599
1317090754590,4.25555
1317090814590,4.27427
1317090874590,4.24789
1317090934590,4.21474
1317090994590,4.25851
1317091054590,4.24710
1317091114590,4.21478
1317091174590,4.22074
1317091234590,4.19389
1317091294590,4.26660
1317091354590,4.20514
1317091414590,4.24181
1317091474590,4.23118
1317091534590,4.21766
1317091594590,4.24505
1317091654590,4.21374
1317091714590,4.21603
1317091774590,4.25598
1317091834590,4.24129
1317091894590,4.22890
1317091954590,4.22668
1317092014590,4.23070
1317092074590,4.26322
1317092134590,4.25617
1317092194590,4.23694
1317092254590,4.21914
1317092314590,4.21473
1317092374590,4.19754
1317092434600,4.23968
1317092494600,4.23790
1317092554600,4.21757
1317092614600,4.22201
1317092674600,4.20601
1317092734600,4.20852
1317092794600,4.22665
1317092854600,4.21672
1317092914600,4.24555
1317092974600,4.18843
1317093034600,4.21626
1317093094600,4.21327
1317093154600,4.18127
1317093214600,4.22715
1317093274600,4.20738
1317093334601,4.24271
1317093394601,4.21594
1317093454600,4.20232
1317093514600,4.20284
1317093574600,4.21474
1317093634600,4.19495
1317093694600,4.22596
1317093754600,4.20353
1317093814600,4.19390
1317093874600,4.21341
1317093934600,4.25005
1317093994600,4.21695
1317094054600,4.23854
1317094114600,4.20594
1317094174600,4.20144
1317094234600,4.19736
1317094294600,4.18676
1317094354600,4.18669
1317094414600,4.21485
1317094474600,4.19575
1317094534600,4.22542
1317094594600,4.19749
1317094654601,4.21048
1317094714601,4.20428
1317094774601,4.21248
1317094834600,4.23361
1317094894600,4.23130
1317094954600,4.24839
1317095014600,4.23159
1317095074600,4.20926
1317095134600,4.20755
1317095194600,4.21256
1317095254600,4.19123
1317095314600,4.21048
1317095374600,4.21179
1317095434600,4.19905
1317095494600,4.22966
1317095554600,4.20165
1317095614600,4.21699
1317095674600,4.21434
1317095734600,4.21654
1317095794600,4.18586
1317095854600,4.19192
1317095914600,4.18628
1317095974600,4.23287
1317096034611,4.25207
1317096094611,4.23140
1317096154611,4.19768
1317096214611,4.20237
1317096274611,4.21738
1317096334611,4.18281
1317096394611,4.24908
1317096454611,4.21686
1317096514611,4.20871
1317096574611,4.22973
1317096634611,4.23986
1317096694611,4.26559
1317096754611,4.23255
1317096814611,4.22015
1317096874611,4.19250
1317096934611,4.19571
1317096994611,4.18627
1317097054611,4.23214
1317097114611,4.18541
1317097174611,4.21904
1317097234611,4.21719
1317097294611,4.22762
1317097354611,4.20992
1317097414611,4.23586
1317097474611,4.22766
1317097534611,4.23655
1317097594611,4.22048
1317097654611,4.20107
1317097714611,4.19630
1317097774611,4.21438
1317097834611,4.18910
1317097894611,4.23347
1317097954611,4.19072
1317098014611,4.20820
1317098074611,4.22299
1317098134611,4.22535
1317098194611,4.21971
1317098254611,4.23227
1317098314611,4.25847
1317098374611,4.28107
1317098434611,4.28931
1317098494611,4.29729
1317098554611,4.31597
1317098614611,4.30573
1317098674611,4.31659
1317098734611,4.36955
1317098794611,4.36142
1317098854611,4.36817
1317098914611,4.37098
1317098974611,4.40063
1317099034611,4.43716
1317099094611,4.43071
1317099154611,4.48897
1317099214611,4.44801
1317099274611,4.46903
1317099334611,4.49620
1317099394611,4.52453
1317099454611,4.49041
1317099514611,4.50291
1317099574611,4.51682
1317099634621,4.48301
1317099694621,4.53842
1317099754621,4.56739
1317099814621,4.56128
1317099874621,4.61006
1317099934621,4.66644
1317099994621,4.67563
1317100054621,4.70572
1317100114621,4.76162
1317100174621,4.78907
1317100234621,4.82411
1317100294621,4.81209
1317100354621,4.70571
1317100414621,4.70491
1317100474621,4.64688
1317100534621,4.64496
1317100594621,4.65476
1317100654621,4.68200
1317100714621,4.61738
1317100774621,4.59755
1317100834621,4.62797
1317100894621,4.53835
1317100954621,4.50413
1317101014621,4.47144
1317101074621,4.46937
1317101134621,4.40631
1317101194621,4.38967
1317101254621,4.39049
1317101314621,4.35675
1317101374621,4.35920
1317101434621,4.31945
1317101494621,4.27942
1317101554621,4.28989
1317101614621,4.28565
1317101674621,4.24450
1317101734621,4.28582
1317101794621,4.22619
1317101854621,4.21503
1317101914621,4.24508
1317101974621,4.21166
1317102034621,4.20374
1317102094621,4.19540
1317102154621,4.21182
1317102214621,4.22026
1317102274621,4.19673
1317102334621,4.15869
1317102394621,4.19115
1317102454621,4.19984
1317102514621,4.17210
1317102574621,4.17862
1317102634621,4.18986
1317102694621,4.18295
1317102754621,4.17799
1317102814621,4.18859
1317102874621,4.16672
1317102934621,4.16844
1317102994621,4.18201
1317103054621,4.18569
1317103114621,4.15989
1317103174621,4.15267
1317103234632,4.11665
1317116194661,4.19597
1317116254661,4.21203
1317116314661,4.18873
1317116374661,4.19892
1317116434661,4.16133
1317116494661,4.21828
1317116554661,4.19569
1317116614661,4.22490
1317116674661,4.17496
1317116734661,4.21949
1317116794661,4.20143
1317116854661,4.18531
1317116914661,4.19893
1317116974661,4.19726
1317117034661,4.20437
1317117094661,4.17478
1317117154661,4.19453
1317117214661,4.21143
1317117274661,4.18449
1317117334661,4.17762
1317117394661,4.20435
1317117454661,4.18965
1317117514661,4.19744
1317117574661,4.18787
1317117634672,4.19352
1317117694672,4.18242
1317117754672,4.19872
1317117814672,4.16657
1317117874672,4.16598
1317117934672,4.16168
1317117994672,4.14375
1317118054672,4.16974
1317118114672,4.21013
1317118174672,4.18702
1317118234672,4.21230
1317118294672,4.19893
1317118354672,4.18847
1317118414672,4.20060
1317118474672,4.17338
1317118534672,4.19679
1317118594672,4.20416
1317118654672,4.18500
1317118714672,4.17421
1317118774672,4.19222
1317118834672,4.18687
1317118894672,4.18856
1317118954672,4.16446
1317119014672,4.17884
1317119074672,4.20129
1317119134672,4.16788
1317119194672,4.16803
1317119254672,4.15969
1317119314672,4.17796
1317119374672,4.19232
1317119434672,4.16777
1317119494672,4.18675
1317119554672,4.21125
1317119614672,4.20379
1317119674672,4.17326
1317119734672,4.14602
1317119794672,4.18397
1317119854672,4.19148
1317119914672,4.17259
1317119974672,4.19836
1317120034672,4.19687
1317120094672,4.21803
1317120154672,4.18763
1317120214672,4.18327
1317120274672,4.17798
1317120334672,4.19304
1317120394672,4.18114
1317120454672,4.20068
1317120514672,4.15466
1317120574672,4.19954
1317120634672,4.20264
1317120694672,4.19341
1317120754672,4.23634
1317120814672,4.33945
1317120874672,4.32534
1317120934672,4.36330
1317120994672,4.31017
1317121054672,4.27892
1317121114672,4.25371
1317121174672,4.24134
1317121234683,4.23316
1317121294683,4.16059
1317121354683,4.18868
1317121414683,4.22656
1317121474683,4.21812
1317121534683,4.18382
1317121594683,4.20031
1317121654683,4.21927
1317121714683,4.21064
1317121774683,4.15621
1317121834683,4.16116
1317121894683,4.18797
1317121954683,4.17878
1317122014683,4.19756
1317122074683,4.17658
1317122134683,4.16954
1317122194683,4.17190
1317122254683,4.19594
1317122314683,4.18277
1317122374683,4.22424
1317122434683,4.21238
1317122494683,4.23711
1317122554683,4.19721
1317122614683,4.17932
1317122674683,4.17655
1317122734683,4.21240
1317122794683,4.19869
1317122854683,4.20486
1317122914683,4.19326
1317122974683,4.21509
1317123034683,4.18390
1317123094683,4.19230
1317123154683,4.22317
1317123214683,4.18422
1317123274683,4.23497
1317123334683,4.20983
1317123394683,4.20878
1317123454683,4.19489
1317123514683,4.24054
1317123574683,4.21382
1317123634683,4.20677
1317123694683,4.20694
1317123754683,4.21333
1317123814683,4.20934
1317123874683,4.24917
1317123934683,4.24874
1317123994683,4.27129
1317124054683,4.30440
1317124114683,4.26088
1317124174683,4.27713
1317124234683,4.21740
1317124294683,4.22214
1317124354683,4.24269
1317124414683,4.27064
1317124474683,4.25278
1317124534683,4.27248
1317124594683,4.21285
1317124654683,4.20996
1317124714683,4.20741
1317124774683,4.23690
1317124834695,4.21030
1317124894695,4.22790
1317124954695,4.23338
1317125014695,4.20997
1317125074695,4.22222
1317125134695,4.22892
1317125194695,4.18386
1317125254695,4.22773
1317125314695,4.20310
1317125374695,4.22266
1317125434695,4.20747
1317125494695,4.23401
1317125554695,4.25434
1317125614695,4.20473
1317125674695,4.22478
1317125734695,4.21019
1317125794695,4.21795
1317125854695,4.20378
1317125914695,4.21128
1317125974695,4.20554
1317126034695,4.19267
1317126094695,4.22682
1317126154695,4.22141
1317126214695,4.26487
1317126274695,4.21698
1317126334695,4.22312
1317126394695,4.23105
1317126454695,4.23195
1317126514695,4.20767
1317126574695,4.21450
1317126634695,4.24043
1317126694695,4.23570
1317126754695,4.21808
1317126814695,4.24807
1317126874695,4.19801
1317126934695,4.22748
1317126994695,4.23746
1317127054695,4.20570
1317127114695,4.25686
1317127174695,4.25191
1317127234695,4.21865
1317127294695,4.25338
1317127354695,4.23248
1317127414695,4.23374
1317127474695,4.23348
1317127534695,4.20110
1317127594695,4.26837
1317127654695,4.25907
1317127714695,4.25057
1317127774695,4.26887
1317127834695,4.25801
1317127894695,4.28947
1317127954695,4.27172
1317128014695,4.27015
1317128074695,4.27241
1317128134695,4.28155
1317128194695,4.24991
1317128254695,4.29437
1317128314695,4.26898
1317128374695,4.30491
1317128434707,4.27331
1317128494707,4.27657
1317128554707,4.28777
1317128614707,4.25779
1317128674707,4.26745
1317128734707,4.25084
1317128794707,4.26897
1317128854707,4.24881
1317128914707,4.28500
1317128974707,4.22993
1317129034707,4.29238
1317129094707,4.27226
1317129154707,4.25823
1317129214707,4.25821
1317129274707,4.26843
1317129334707,4.24301
1317129394707,4.27132
1317129454707,4.24829
1317129514707,4.23079
1317129574707,4.24146
1317129634707,4.25323
1317129694707,4.25205
1317129754707,4.21874
1317129814707,4.25949
1317129874707,4.24910
1317129934707,4.29376
1317129994707,4.25961
1317130054707,4.22404
1317130114707,4.25888
1317130174707,4.26006
1317130234707,4.23843
1317130294707,4.20585
1317130354707,4.24249
1317130414707,4.21363
1317130474707,4.26972
1317130534707,4.25746
1317130594707,4.26467
1317130654707,4.25200
1317130714707,4.27505
1317130774707,4.21905
1317130834707,4.26417
1317130894707,4.24911
1317130954707,4.30144
1317131014707,4.23673
1317131074707,4.27728
1317131134707,4.24827
1317131194707,4.24291
1317131254707,4.22239
1317131314707,4.22386
1317131374707,4.23847
1317131434707,4.21812
1317131494707,4.22552
1317131554707,4.23660
1317131614707,4.23523
1317131674707,4.21860
1317131734707,4.23643
1317131794707,4.22257
1317131854707,4.24846
1317131914707,4.24416
1317131974707,4.25080
1317132034719,4.25365
1317132094719,4.26362
1317132154719,4.22519
1317132214719,4.31103
1317132274719,4.23431
1317132334719,4.24180
1317132394719,4.21775
1317132454719,4.21569
1317132514719,4.24387
1317132574719,4.23588
1317132634719,4.24754
1317132694719,4.24898
1317132754719,4.23340
1317132814719,4.23874
1317132874719,4.23848
1317132934719,4.24789
1317132994719,4.20812
1317133054719,4.22803
1317133114719,4.23021
1317133174719,4.23089
1317133234719,4.25531
1317133294719,4.24401
1317133354719,4.28353
1317133414719,4.23704
1317133474719,4.25093
1317133534719,4.23031
1317133594719,4.22120
1317133654719,4.19106
1317133714719,4.24743
1317133774719,4.22506
1317133834719,4.21412
1317133894719,4.25390
1317133954719,4.19687
1317134014719,4.25510
1317134074719,4.20495
1317134134719,4.20025
1317134194719,4.20783
1317134254719,4.22421
1317134314719,4.21942
1317134374719,4.23076
1317134434719,4.19651
1317134494719,4.22900
1317134554719,4.19732
1317134614719,4.21857
1317134674719,4.24324
1317134734719,4.20740
1317134794719,4.20173
1317134854719,4.23879
1317134914719,4.21479
1317134974719,4.23117
1317135034719,4.21560
1317135094719,4.25935
1317135154719,4.23845
1317135214719,4.23429
1317135274719,4.20296
1317135334719,4.25281
1317135394719,4.23518
1317135454719,4.18636
1317135514719,4.21362
1317135574719,4.26086
1317135634731,4.22181
1317135694731,4.20079
1317135754731,4.22130
1317135814731,4.20020
1317135874731,4.25943
1317135934731,4.22904
1317135994731,4.23012
1317136054731,4.20946
1317136114731,4.22446
1317136174731,4.23437
1317136234731,4.26212
1317136294731,4.24104
1317136834731,4.18109
1317136894731,4.26607
1317136954731,4.21552
1317137014731,4.23013
1317137074731,4.23622
1317137134731,4.26646
1317137194731,4.24540
1317137254731,4.25702
1317137314731,4.30834
1317137374731,4.28911
1317137434731,4.30860
1317137494731,4.30367
1317137554731,4.29131
1317137614731,4.31969
1317137674731,4.32840
1317137734731,4.36808
1317137794731,4.36924
1317137854731,4.31718
1317137914731,4.29455
1317137974731,4.24258
1317138034731,4.27807
1317138094731,4.30253
1317138154731,4.22917
1317138214731,4.28129
1317138274731,4.26961
1317138334731,4.25726
1317138394731,4.22504
1317138454731,4.23806
1317138514731,4.29821
1317138574731,4.24177
1317138634731,4.26531
1317138694731,4.27325
1317138754731,4.24824
1317138814731,4.27608
1317138874731,4.26956
1317138934731,4.27452
1317138994731,4.28841
1317139054731,4.28349
1317139114731,4.25099
1317139174731,4.26507
1317139234743,4.24026
1317139294743,4.25790
1317139354743,4.24045
1317139414743,4.30070
1317139474743,4.25674
1317139534743,4.25377
1317139594743,4.27738
1317139654743,4.26383
1317139714743,4.26275
1317139774743,4.27386
1317139834743,4.25403
1317139894743,4.24293
1317139954743,4.24012
1317140014743,4.28373
1317140074743,4.27090
1317140134743,4.26970
1317140194743,4.24332
1317140254743,4.24574
1317140314743,4.22993
1317140374743,4.25712
1317140434743,4.24055
1317140494743,4.23796
1317140554743,4.27985
1317140614743,4.28822
1317140674743,4.26882
1317140734743,4.24513
1317140794743,4.25836
1317140854743,4.27991
1317140914743,4.27852
1317140974743,4.24388
1317141034743,4.23678
1317141094743,4.21520
1317141154743,4.23478
1317141214743,4.26795
1317141274743,4.24941
1317141334743,4.21436
1317141394743,4.25530
1317141454743,4.23472
1317141514743,4.27446
1317141574743,4.24908
1317141634743,4.22995
1317141694743,4.24682
1317141754743,4.22598
1317141814743,4.27792
1317141874743,4.23038
1317141934743,4.29634
1317141994743,4.21266
1317142054743,4.24077
1317142114743,4.21685
1317142174743,4.24797
1317142234743,4.23479
1317142294743,4.20921
1317142354743,4.21123
1317142414743,4.24626
1317142474743,4.27388
1317142534743,4.25103
1317142594743,4.23364
1317142654743,4.20115
1317142714743,4.20810
1317142774743,4.23835
1317142834756,4.23688
1317142894756,4.24282
1317142954756,4.19688
1317143014756,4.22363
1317143074756,4.22853
1317143134756,4.25500
1317143194756,4.22593
1317143254756,4.25883
1317143314756,4.24387
1317143374756,4.23778
1317143434756,4.25156
1317143494756,4.24876
1317143554756,4.25007
1317143614756,4.22055
1317143674756,4.24039
1317143734756,4.25554
1317143794756,4.21277
1317143854756,4.21376
1317143914756,4.24581
1317143974756,4.22567
1317144034756,4.21916
1317144094756,4.20559
1317144154756,4.27452
1317144214756,4.23195
1317144274756,4.23712
1317144334756,4.25149
1317144394756,4.23225
1317144454756,4.22740
1317144514756,4.22541
1317144574756,4.24410
1317144634756,4.25301
1317144694756,4.19143
1317144754756,4.20772
1317144814756,4.19658
1317144874756,4.22836
1317144934756,4.19320
1317144994756,4.21181
1317145054756,4.24891
1317145114756,4.21329
1317145174756,4.23046
1317145234756,4.23255
1317145294756,4.23482
1317145354756,4.20378
1317145414756,4.22605
1317145474756,4.18988
1317145534756,4.19604
1317145594756,4.19247
1317145654756,4.16836
1317145714756,4.19573
1317145774756,4.27092
1317145834756,4.23159
1317145894756,4.19256
1317145954756,4.18460
1317146014756,4.19058
1317146074756,4.22224
1317146134756,4.21350
1317146194756,4.15579
1317146254756,4.22490
1317146314756,4.18125
1317146374756,4.19290
1317146434768,4.22034
1317146494768,4.20729
1317146554768,4.21287
1317146614768,4.20264
1317146674768,4.21586
1317146734768,4.18471
1317146794768,4.20187
1317146854768,4.20995
1317146914768,4.22342
1317146974768,4.28300
1317147034768,4.28402
1317147094768,4.31715
1317147154768,4.30802
1317147214768,4.27819
1317147274768,4.31913
1317147334768,4.25332
1317147394768,4.27247
1317147454768,4.27632
1317147514768,4.23137
1317147574768,4.26066
1317147634768,4.28727
1317147694768,4.24320
1317147754768,4.23346
1317147814768,4.25556
1317147874768,4.23523
1317147934768,4.20956
1317147994768,4.20800
1317148054768,4.24839
1317148114768,4.21192
1317148174768,4.18442
1317148234768,4.17871
1317148294768,4.21655
1317148354768,4.20691
1317148414768,4.22401
1317148474768,4.20692
1317148534768,4.21304
1317148594768,4.19573
1317148654768,4.18992
1317148714768,4.17813
1317148774768,4.17407
1317148834768,4.18210
1317148894768,4.20070
1317148954768,4.21975
1317149014768,4.20373
1317149074768,4.20159
1317149134768,4.19392
1317149194768,4.20834
1317149254768,4.18354
1317149314768,4.18150
1317149374768,4.17549
1317149434768,4.22519
1317149494768,4.18309
1317149554768,4.22645
1317149614768,4.17923
1317149674768,4.20325
1317149734768,4.21618
1317149794768,4.21583
1317149854768,4.20194
1317149914768,4.21581
1317149974768,4.20018
1317150034781,4.21759
1317150094781,4.19006
1317150154781,4.19416
1317150214781,4.20348
1317150274781,4.16765
1317150334781,4.16464
1317150394781,4.19292
1317150454781,4.21151
1317150514781,4.18930
1317150574781,4.18250
1317150634781,4.18540
1317150694781,4.20516
1317150754781,4.20067
1317150814781,4.20666
1317150874781,4.17646
1317150934781,4.20686
1317150994781,4.18768
1317151054781,4.17790
1317151114781,4.17864
1317151174781,4.20024
1317151234781,4.15832
1317151294781,4.21019
1317151354781,4.20739
1317151414781,4.16903
1317151474781,4.22070
1317151534781,4.18514
1317151594781,4.20055
1317151654781,4.20267
1317151714781,4.20020
1317151774781,4.17646
1317151834781,4.23578
1317151894781,4.22556
1317151954781,4.21970
1317152014781,4.20151
1317152074781,4.18430
1317152134781,4.20642
1317152194781,4.22664
1317152254781,4.19267
1317152314781,4.19874
1317152374781,4.20768
1317152434781,4.17862
1317152494781,4.18154
1317152554781,4.15145
1317152614781,4.19217
1317152674781,4.18121
1317152734781,4.20555
1317152794781,4.19376
1317152854781,4.21067
1317152914781,4.17192
1317152974781,4.19701
1317153034781,4.17241
1317153094781,4.16110
1317153154781,4.19070
1317153214781,4.18506
1317153274781,4.17192
1317153334781,4.17810
1317153394781,4.16842
1317153454781,4.19248
1317153514781,4.19215
1317153574781,4.17183
1317153634793,4.20564
1317153694793,4.19369
1317153754793,4.22323
1317153814793,4.19003
1317153874793,4.17740
1317153934793,4.17711
1317153994793,4.17333
1317154054793,4.15791
1317154114793,4.17126
1317154174793,4.17813
1317154234793,4.19951
1317154294793,4.15041
1317154354793,4.14987
1317154414793,4.18198
1317154474793,4.17908
1317154534793,4.22197
1317154594793,4.16272
1317154654793,4.15989
1317154714793,4.17912
1317154774793,4.18508
1317154834793,4.15108
1317154894793,4.17123
1317154954793,4.15532
1317155014793,4.15406
1317155074793,4.15018
1317155134793,4.16591
1317155194793,4.16174
1317155254793,4.14349
1317155314793,4.14921
1317155374793,4.14944
1317155434793,4.15008
1317155494793,4.16275
1317155554793,4.15677
1317155614793,4.14154
1317155674793,4.17564
1317155734793,4.15415
1317155794793,4.19431
1317155854793,4.20152
1317155914793,4.19961
1317155974793,4.19764
1317156034793,4.19596
1317156094793,4.22557
1317156154793,4.23938
1317156214793,4.24574
1317156274793,4.26788
1317156334793,4.31829
1317156394793,4.31910
1317156454793,4.37556
1317156514793,4.37032
1317156574793,4.45562
1317156634793,4.50784
1317156694793,4.61129
1317156754793,4.62447
1317156814793,4.69473
1317156874793,4.75788
1317156934793,4.83917
1317156994793,4.85587
1317157054793,4.91468
1317157114793,4.93493
1317157174793,4.93738
1317157234805,4.90071
1317157294805,4.92711
1317157354805,4.89617
1317157414805,4.84212
1317157474805,4.83727
1317157534805,4.80476
1317157594805,4.72262
1317157654805,4.64806
1317157714805,4.62999
1317157774805,4.57491
1317157834805,4.56994
1317157894805,4.54656
1317157954805,4.48671
1317158014805,4.46810
1317158074805,4.46944
1317158134805,4.43454
1317158194805,4.44126
1317158254805,4.41287
1317158314805,4.38726
1317158374805,4.35340
1317158434805,4.39653
1317158494805,4.41356
1317158554805,4.35361
1317158614805,4.33786
1317158674805,4.30713
1317158734805,4.29732
1317158794805,4.28284
1317158854805,4.27649
1317158914805,4.28590
1317158974805,4.29695
1317159034805,4.27963
1317159094805,4.23054
1317159154805,4.20051
1317159214805,4.21402
1317159274805,4.26786
1317159334805,4.22400
1317159394805,4.24360
1317159454805,4.22645
1317159514805,4.21093
1317159574805,4.21867
1317159634805,4.21506
1317159694805,4.21885
1317159754805,4.18619
1317159814805,4.17321
1317159874805,4.17836
1317159934805,4.17342
1317159994805,4.20608
1317160054805,4.20111
1317160114805,4.19835
1317160174805,4.13585
1317160234805,4.14717
1317160294805,4.14475
1317160354805,4.15954